FW9103 Weather Reports


time (UTC)temp
C
wind
direction
speed
KPH
gust
KPH
rain 1hr
cm
rain 24hr
cm
rain mn
cm
humidity
%
barometer
mb
20260505125021 15 166 3.2 9.7 0.00 0.00 0.00 81 1011.9
20260505124021 15 148 4.8 14.5 0.00 0.00 0.00 81 1011.9
20260505123021 15 161 4.8 9.7 0.00 0.00 0.00 82 1012.0
20260505122021 14 183 4.8 14.5 0.00 0.00 0.00 82 1012.0
20260505121022 14 165 3.2 8.0 0.00 0.00 0.00 83 1011.9
20260505120021 13 137 3.2 12.9 0.00 0.00 0.00 85 1012.0
20260505115021 13 159 3.2 9.7 0.00 0.00 0.00 85 1012.1
20260505114022 13 126 3.2 9.7 0.00 0.00 0.00 86 1012.1
20260505113023 12 156 3.2 9.7 0.00 0.00 0.00 87 1012.2
20260505112021 12 146 3.2 22.5 0.00 0.00 0.00 87 1012.1
20260505111021 12 142 3.2 11.3 0.00 0.00 0.00 88 1012.0
20260505102023 11 177 1.6 6.4 0.00 0.00 0.00 90 1012.0
20260505101021 11 170 1.6 8.0 0.00 0.00 0.00 90 1012.0
20260505100029 11 258 3.2 8.0 0.00 0.00 0.00 90 1011.9
20260505095021 11 206 1.6 8.0 0.00 0.00 0.00 90 1011.7
20260505094021 11 186 1.6 4.8 0.00 0.00 0.00 90 1011.7
20260505093021 11 214 1.6 11.3 0.00 0.00 0.00 90 1011.7
20260505092021 11 247 3.2 9.7 0.00 0.00 0.00 90 1011.7
20260505091021 11 284 1.6 11.3 0.00 0.00 0.00 90 1011.7
20260505090021 11 228 1.6 9.7 0.00 0.00 0.00 90 1011.7
20260505085021 11 223 1.6 4.8 0.00 0.00 0.00 90 1011.7
20260505084021 11 282 1.6 6.4 0.00 0.00 0.00 90 1011.7
20260505083021 11 252 1.6 6.4 0.00 0.00 0.00 90 1011.8
20260505082021 11 288 1.6 11.3 0.00 0.00 0.00 90 1011.9
20260505081021 11 291 1.6 6.4 0.00 0.00 0.00 90 1011.9
20260505080021 11 276 1.6 6.4 0.00 0.00 0.00 90 1012.0
20260505075021 11 304 3.2 6.4 0.00 0.00 0.00 90 1011.9
20260505074021 11 241 1.6 6.4 0.00 0.00 0.00 90 1012.0
20260505073021 11 278 1.6 8.0 0.00 0.00 0.00 90 1012.0
20260505072021 11 292 1.6 6.4 0.00 0.00 0.00 90 1011.9
20260505071022 11 304 1.6 6.4 0.00 0.00 0.00 90 1012.1
20260505070021 11 230 1.6 4.8 0.00 0.00 0.00 90 1012.0
20260505065026 11 255 1.6 6.4 0.00 0.00 0.00 90 1012.0
20260505064021 11 317 1.6 4.8 0.00 0.00 0.00 90 1011.9
20260505063021 11 260 1.6 4.8 0.00 0.00 0.00 90 1012.0
20260505062021 11 182 1.6 4.8 0.00 0.00 0.00 90 1011.9
20260505061021 11 301 1.6 6.4 0.00 0.00 0.00 90 1011.9
20260505060021 11 242 1.6 14.5 0.00 0.00 0.00 89 1011.9
20260505055022 11 286 3.2 8.0 0.00 0.00 0.00 89 1012.0
20260505054021 11 294 1.6 11.3 0.00 0.00 0.00 89 1012.0
20260505053021 11 298 1.6 9.7 0.00 0.00 0.00 88 1012.0
20260505052027 11 267 1.6 6.4 0.00 0.00 0.00 88 1012.0
20260505051022 11 297 1.6 9.7 0.00 0.00 0.00 88 1011.9
20260505041021 11 266 1.6 8.0 0.00 0.00 0.00 85 1012.3
20260505040028 11 283 1.6 6.4 0.00 0.00 0.00 85 1012.4
20260505035022 11 262 1.6 8.0 0.00 0.00 0.00 84 1012.5
20260505034021 11 176 3.2 9.7 0.00 0.00 0.00 84 1012.5
20260505033021 11 298 1.6 9.7 0.00 0.00 0.00 83 1012.4
20260505032021 11 285 3.2 8.0 0.00 0.00 0.00 83 1012.5
20260505031021 11 254 3.2 9.7 0.00 0.00 0.00 82 1012.5
20260505030022 11 244 3.2 12.9 0.00 0.00 0.00 82 1012.6
20260505025021 11 284 3.2 9.7 0.00 0.00 0.00 81 1012.5
20260505024021 11 282 3.2 19.3 0.00 0.00 0.00 81 1012.5
20260505023022 12 308 3.2 12.9 0.00 0.00 0.00 80 1012.5
20260505022021 12 274 4.8 14.5 0.00 0.00 0.00 80 1012.5
20260505021021 12 262 4.8 17.7 0.00 0.00 0.00 80 1012.3
20260505020022 12 298 3.2 19.3 0.00 0.00 0.00 80 1012.2
20260505015022 12 320 3.2 8.0 0.00 0.00 0.00 79 1012.2
20260505014022 12 264 3.2 11.3 0.00 0.00 0.00 78 1012.0
20260505013021 12 285 4.8 17.7 0.00 0.00 0.00 77 1011.9
20260505012022 12 264 3.2 11.3 0.00 0.00 0.00 77 1011.8
20260505011022 12 291 3.2 9.7 0.00 0.00 0.00 76 1011.7
20260505010021 12 256 3.2 11.3 0.00 0.00 0.00 76 1011.6
20260505005022 12 305 4.8 20.9 0.00 0.00 0.00 75 1011.5
20260505004022 12 311 4.8 12.9 0.00 0.00 0.00 73 1011.3
20260505003022 12 307 4.8 12.9 0.00 0.00 0.00 71 1011.1
20260505002021 12 296 4.8 17.7 0.00 0.00 0.00 69 1011.0
20260505001022 12 303 6.4 19.3 0.00 0.00 0.00 68 1010.9
20260505000022 12 300 4.8 17.7 0.00 0.00 0.00 68 1010.8
20260504235022 12 298 4.8 16.1 0.00 0.00 0.00 68 1010.6
20260504234022 12 304 4.8 14.5 0.00 0.00 0.00 68 1010.6
20260504233021 13 269 4.8 14.5 0.00 0.00 0.00 67 1010.5
20260504232022 13 271 4.8 11.3 0.00 0.00 0.00 66 1010.4
20260504231022 13 276 4.8 12.9 0.00 0.00 0.00 65 1010.2
20260504230021 14 186 3.2 14.5 0.00 0.00 0.00 64 1010.2
20260504225022 14 287 4.8 16.1 0.00 0.00 0.00 63 1010.1
20260504224022 15 208 4.8 17.7 0.00 0.00 0.00 63 1010.1
20260504223022 15 262 6.4 24.1 0.00 0.00 0.00 62 1010.1
20260504222021 15 270 4.8 16.1 0.00 0.00 0.00 60 1010.1
20260504221022 16 226 3.2 9.7 0.00 0.00 0.00 59 1010.2
20260504220022 16 211 3.2 9.7 0.00 0.00 0.00 60 1010.3
20260504215022 16 295 4.8 14.5 0.00 0.00 0.00 59 1010.3
20260504214022 16 203 6.4 17.7 0.00 0.00 0.00 57 1010.3
20260504213022 16 317 6.4 17.7 0.00 0.00 0.00 56 1010.3
20260504212022 16 252 6.4 17.7 0.00 0.00 0.00 55 1010.3
20260504211021 17 238 4.8 12.9 0.00 0.00 0.00 53 1010.2
20260504210022 17 317 6.4 20.9 0.00 0.00 0.00 51 1010.1
20260504205022 17 276 6.4 27.4 0.00 0.00 0.00 50 1010.0
20260504204022 18 317 6.4 24.1 0.00 0.00 0.00 51 1010.0
20260504203022 18 299 4.8 11.3 0.00 0.00 0.00 50 1009.9
20260504202022 18 296 4.8 17.7 0.00 0.00 0.00 50 1009.8
20260504201022 18 125 4.8 16.1 0.00 0.00 0.00 48 1009.8
20260504200022 19 277 4.8 19.3 0.00 0.00 0.00 45 1009.8
20260504195022 18 301 4.8 30.6 0.00 0.00 0.00 43 1009.6
20260504194022 18 334 9.7 20.9 0.00 0.00 0.00 41 1009.6
20260504193022 19 223 8.0 14.5 0.00 0.00 0.00 41 1009.6
20260504192022 18 314 9.7 22.5 0.00 0.00 0.00 41 1009.8
20260504191022 19 315 8.0 32.2 0.00 0.00 0.00 42 1009.8
20260504190022 18 334 8.0 37.0 0.00 0.00 0.00 43 1009.9
20260504185022 18 311 8.0 29.0 0.00 0.00 0.00 42 1009.9
20260504184022 18 270 8.0 29.0 0.00 0.00 0.00 45 1009.9
20260504183021 18 305 9.7 22.5 0.00 0.00 0.00 44 1009.7
20260504182022 18 300 6.4 24.1 0.00 0.00 0.00 45 1009.5
20260504181021 18 306 8.0 22.5 0.00 0.00 0.00 43 1009.6
20260504180022 19 179 6.4 17.7 0.00 0.00 0.00 41 1009.7
20260504175022 19 307 8.0 17.7 0.00 0.00 0.00 39 1009.7
20260504174022 19 329 8.0 19.3 0.00 0.00 0.00 39 1010.0
20260504173022 19 321 8.0 27.4 0.00 0.00 0.00 39 1009.9
20260504172022 19 120 6.4 16.1 0.00 0.00 0.00 41 1009.9
20260504171022 19 299 6.4 24.1 0.00 0.00 0.00 43 1010.0
20260504151022 18 293 3.2 9.7 0.00 0.05 0.00 57 1010.8
20260504141022 17 306 4.8 16.1 0.00 0.05 0.00 54 1011.1